FW9002 Weather Reports


time (UTC)temp
C
wind
direction
speed
KPH
gust
KPH
rain 1hr
cm
rain 24hr
cm
rain mn
cm
humidity
%
barometer
mb
20260507155737 23 74 0.0 1.6 0.00 0.00 0.00 23 1014.0
20260507155233 23 76 0.0 0.0 0.00 0.00 0.00 23 1014.0
20260507154730 23 358 3.2 3.2 0.00 0.00 0.00 24 1013.9
20260507154228 23 53 1.6 1.6 0.00 0.00 0.00 24 1014.0
20260507153724 23 95 0.0 0.0 0.00 0.00 0.00 24 1013.9
20260507153220 23 83 1.6 0.0 0.00 0.00 0.00 25 1014.1
20260507152717 22 80 0.0 0.0 0.00 0.00 0.00 26 1013.9
20260507152213 22 90 0.0 0.0 0.00 0.00 0.00 26 1014.1
20260507151709 22 66 0.0 0.0 0.00 0.00 0.00 25 1014.2
20260507151206 22 88 0.0 0.0 0.00 0.00 0.00 27 1014.1
20260507150703 21 175 0.0 0.0 0.00 0.00 0.00 28 1014.2
20260507150200 21 176 1.6 1.6 0.00 0.00 0.00 28 1014.1
20260507145655 21 68 1.6 1.6 0.00 0.00 0.00 29 1014.1
20260507145152 21 69 0.0 0.0 0.00 0.00 0.00 30 1014.4
20260507144649 20 68 0.0 0.0 0.00 0.00 0.00 31 1014.3
20260507144147 20 55 1.6 1.6 0.00 0.00 0.00 31 1014.2
20260507143644 20 81 1.6 3.2 0.00 0.00 0.00 31 1014.2
20260507143141 20 90 0.0 0.0 0.00 0.00 0.00 33 1014.3
20260507142636 19 96 0.0 0.0 0.00 0.00 0.00 34 1014.3
20260507142133 18 98 0.0 0.0 0.00 0.00 0.00 35 1014.2
20260507141629 18 107 0.0 0.0 0.00 0.00 0.00 35 1014.4
20260507141126 18 99 0.0 0.0 0.00 0.00 0.00 36 1014.5
20260507140623 17 101 1.6 1.6 0.00 0.00 0.00 37 1014.2
20260507140120 17 91 0.0 0.0 0.00 0.00 0.00 41 1014.3
20260507135617 16 91 0.0 0.0 0.00 0.00 0.00 42 1014.2
20260507135115 16 91 0.0 0.0 0.00 0.00 0.00 44 1014.6
20260507134611 15 90 0.0 0.0 0.00 0.00 0.00 46 1014.3
20260507134107 15 75 0.0 0.0 0.00 0.00 0.00 48 1014.3
20260507133603 15 70 1.6 1.6 0.00 0.00 0.00 50 1014.1
20260507133101 15 72 0.0 0.0 0.00 0.00 0.00 52 1014.3
20260507132557 14 72 0.0 0.0 0.00 0.00 0.00 50 1014.2
20260507132054 14 76 1.6 1.6 0.00 0.00 0.00 50 1014.1
20260507131551 13 129 0.0 0.0 0.00 0.00 0.00 49 1014.1
20260507131048 13 130 0.0 0.0 0.00 0.00 0.00 50 1014.0
20260507130545 12 136 0.0 0.0 0.00 0.00 0.00 51 1013.9
20260507130043 11 155 0.0 0.0 0.00 0.00 0.00 55 1013.9
20260507125541 11 158 0.0 0.0 0.00 0.00 0.00 58 1013.9
20260507125038 11 91 0.0 0.0 0.00 0.00 0.00 58 1013.8
20260507124534 11 91 0.0 0.0 0.00 0.00 0.00 56 1014.0
20260507124032 11 91 0.0 0.0 0.00 0.00 0.00 57 1013.8
20260507123530 11 92 0.0 0.0 0.00 0.00 0.00 57 1014.0
20260507123027 11 92 0.0 0.0 0.00 0.00 0.00 55 1013.8
20260507122522 11 92 0.0 0.0 0.00 0.00 0.00 55 1013.5
20260507122018 11 92 0.0 0.0 0.00 0.00 0.00 57 1013.9
20260507121514 10 92 0.0 0.0 0.00 0.00 0.00 60 1013.6
20260507121010 10 91 0.0 0.0 0.00 0.00 0.00 58 1014.0
20260507120506 10 91 0.0 0.0 0.00 0.00 0.00 58 1013.8
20260507120004 10 91 0.0 0.0 0.00 0.00 0.00 58 1013.6
20260507115459 10 91 0.0 0.0 0.00 0.00 0.00 57 1013.9
20260507114955 11 91 0.0 0.0 0.00 0.00 0.00 55 1013.9
20260507114452 11 91 0.0 0.0 0.00 0.00 0.00 56 1013.9
20260507113949 11 91 0.0 0.0 0.00 0.00 0.00 53 1013.8
20260507113446 11 91 0.0 0.0 0.00 0.00 0.00 53 1013.8
20260507112943 12 94 0.0 0.0 0.00 0.00 0.00 55 1013.8
20260507112441 12 94 0.0 0.0 0.00 0.00 0.00 53 1013.9
20260507111937 12 96 0.0 0.0 0.00 0.00 0.00 51 1013.9
20260507111435 12 96 0.0 0.0 0.00 0.00 0.00 50 1013.9
20260507110931 13 104 1.6 1.6 0.00 0.00 0.00 48 1014.0
20260507110427 13 105 0.0 0.0 0.00 0.00 0.00 46 1013.8
20260507105924 13 106 0.0 0.0 0.00 0.00 0.00 45 1013.9
20260507105421 13 106 0.0 0.0 0.00 0.00 0.00 43 1013.9
20260507104918 14 108 0.0 0.0 0.00 0.00 0.00 42 1013.6
20260507104415 14 108 0.0 0.0 0.00 0.00 0.00 41 1013.6
20260507103910 14 106 1.6 1.6 0.00 0.00 0.00 41 1013.5
20260507103407 14 129 1.6 1.6 0.00 0.00 0.00 41 1013.6
20260507102903 13 122 1.6 1.6 0.00 0.00 0.00 45 1013.6
20260507102400 12 98 0.0 0.0 0.00 0.00 0.00 50 1013.5
20260507101856 12 93 0.0 0.0 0.00 0.00 0.00 55 1013.8
20260507101356 12 93 0.0 0.0 0.00 0.00 0.00 55 1013.4
20260507100854 12 93 0.0 0.0 0.00 0.00 0.00 55 1014.0
20260507100351 12 93 0.0 0.0 0.00 0.00 0.00 54 1013.8
20260507095849 12 93 0.0 0.0 0.00 0.00 0.00 53 1013.6
20260507095345 12 93 0.0 0.0 0.00 0.00 0.00 53 1014.0
20260507094843 13 93 0.0 0.0 0.00 0.00 0.00 52 1014.0
20260507094339 13 93 1.6 0.0 0.00 0.00 0.00 51 1013.8
20260507093837 13 84 0.0 0.0 0.00 0.00 0.00 52 1013.8
20260507093335 13 84 0.0 0.0 0.00 0.00 0.00 51 1013.8
20260507092833 13 84 0.0 0.0 0.00 0.00 0.00 51 1013.9
20260507092329 13 84 0.0 0.0 0.00 0.00 0.00 51 1014.0
20260507091825 13 84 0.0 0.0 0.00 0.00 0.00 49 1014.0
20260507091322 13 84 0.0 0.0 0.00 0.00 0.00 50 1014.0
20260507090817 13 84 0.0 0.0 0.00 0.00 0.00 51 1014.1
20260507090314 13 84 0.0 0.0 0.00 0.00 0.00 48 1014.0
20260507085811 13 84 0.0 0.0 0.00 0.00 0.00 47 1014.1
20260507085308 14 84 0.0 0.0 0.00 0.00 0.00 46 1014.3
20260507084805 13 85 0.0 0.0 0.00 0.00 0.00 46 1014.2
20260507084301 13 86 0.0 0.0 0.00 0.00 0.00 49 1014.1
20260507083759 13 87 0.0 0.0 0.00 0.00 0.00 51 1013.9
20260507083255 13 87 0.0 0.0 0.00 0.00 0.00 51 1014.3
20260507082751 13 87 0.0 0.0 0.00 0.00 0.00 51 1014.0
20260507082247 13 87 0.0 0.0 0.00 0.00 0.00 51 1014.0
20260507081744 13 87 0.0 0.0 0.00 0.00 0.00 52 1014.1
20260507081240 13 87 0.0 0.0 0.00 0.00 0.00 51 1014.1
20260507080737 14 87 0.0 0.0 0.00 0.00 0.00 50 1014.1
20260507080233 14 87 0.0 0.0 0.00 0.00 0.00 51 1014.2
20260507075729 14 87 0.0 0.0 0.00 0.00 0.00 49 1014.2
20260507075225 14 87 0.0 0.0 0.00 0.00 0.00 50 1014.0
20260507074721 15 87 0.0 0.0 0.00 0.00 0.00 50 1014.0
20260507074220 15 87 0.0 0.0 0.00 0.00 0.00 49 1014.1
20260507073716 15 87 0.0 0.0 0.00 0.00 0.00 49 1014.0
20260507073213 15 87 0.0 0.0 0.00 0.00 0.00 49 1013.9
20260507072711 15 87 0.0 0.0 0.00 0.00 0.00 50 1014.0
20260507072208 15 87 0.0 0.0 0.00 0.00 0.00 49 1014.0
20260507071705 15 87 0.0 0.0 0.00 0.00 0.00 49 1014.1
20260507071201 15 87 0.0 0.0 0.00 0.00 0.00 47 1014.0
20260507070659 15 87 0.0 0.0 0.00 0.00 0.00 47 1014.1
20260507070155 15 87 0.0 0.0 0.00 0.00 0.00 47 1014.1
20260507065651 15 87 0.0 0.0 0.00 0.00 0.00 46 1014.2
20260507065149 15 87 0.0 0.0 0.00 0.00 0.00 45 1014.2
20260507064646 15 86 0.0 0.0 0.00 0.00 0.00 45 1014.2
20260507064144 15 86 1.6 1.6 0.00 0.00 0.00 46 1014.1
20260507063642 15 56 0.0 0.0 0.00 0.00 0.00 45 1014.0
20260507063138 15 345 0.0 0.0 0.00 0.00 0.00 45 1013.6
20260507062635 15 345 0.0 0.0 0.00 0.00 0.00 45 1014.1
20260507062133 16 345 0.0 0.0 0.00 0.00 0.00 44 1014.1
20260507061631 16 345 0.0 0.0 0.00 0.00 0.00 42 1014.0
20260507061128 16 345 0.0 0.0 0.00 0.00 0.00 42 1013.9
20260507060626 16 345 0.0 0.0 0.00 0.00 0.00 42 1014.0
20260507060122 16 345 0.0 0.0 0.00 0.00 0.00 42 1013.9
20260507055618 15 345 1.6 1.6 0.00 0.00 0.00 42 1013.8
20260507055114 15 345 0.0 0.0 0.00 0.00 0.00 43 1013.6
20260507054610 15 345 0.0 0.0 0.00 0.00 0.00 43 1013.9
20260507054107 15 345 0.0 0.0 0.00 0.00 0.00 42 1014.0
20260507053605 15 345 0.0 0.0 0.00 0.00 0.00 40 1013.8
20260507053104 15 345 0.0 0.0 0.00 0.00 0.00 42 1013.6
20260507052601 15 345 0.0 0.0 0.00 0.00 0.00 38 1013.8
20260507052058 16 345 0.0 0.0 0.00 0.00 0.00 40 1013.6
20260507051555 16 345 0.0 0.0 0.00 0.00 0.00 37 1013.6
20260507051052 16 345 0.0 0.0 0.00 0.00 0.00 36 1013.8
20260507050549 16 345 0.0 0.0 0.00 0.00 0.00 34 1013.6
20260507050045 17 345 0.0 0.0 0.00 0.00 0.00 34 1013.5
20260507045542 17 345 0.0 0.0 0.00 0.00 0.00 33 1013.2
20260507045039 18 345 0.0 0.0 0.00 0.00 0.00 32 1013.3
20260507044535 18 345 0.0 0.0 0.00 0.00 0.00 30 1013.6
20260507044033 18 345 0.0 0.0 0.00 0.00 0.00 30 1013.5
20260507043528 18 345 0.0 0.0 0.00 0.00 0.00 27 1013.3
20260507043026 19 345 0.0 0.0 0.00 0.00 0.00 27 1013.3
20260507042522 20 345 0.0 0.0 0.00 0.00 0.00 26 1013.3
20260507042017 20 345 0.0 0.0 0.00 0.00 0.00 25 1013.4
20260507041515 20 345 1.6 0.0 0.00 0.00 0.00 24 1013.1
20260507041011 21 317 0.0 0.0 0.00 0.00 0.00 24 1013.3
20260507040507 21 315 1.6 0.0 0.00 0.00 0.00 23 1013.1
20260507040004 21 299 0.0 0.0 0.00 0.00 0.00 23 1013.2
20260507035500 21 305 1.6 1.6 0.00 0.00 0.00 22 1013.0
20260507034956 21 280 3.2 4.8 0.00 0.00 0.00 22 1013.1
20260507034453 21 339 3.2 3.2 0.00 0.00 0.00 22 1013.0
20260507033951 21 313 0.0 0.0 0.00 0.00 0.00 22 1012.8
20260507033449 21 303 4.8 9.7 0.00 0.00 0.00 21 1012.8
20260507032946 21 318 0.0 1.6 0.00 0.00 0.00 21 1012.8
20260507032443 22 271 1.6 1.6 0.00 0.00 0.00 21 1012.7
20260507031939 22 318 0.0 0.0 0.00 0.00 0.00 21 1012.8
20260507031435 22 288 3.2 3.2 0.00 0.00 0.00 20 1012.8
20260507030932 22 317 3.2 3.2 0.00 0.00 0.00 21 1012.9
20260507030430 22 302 1.6 1.6 0.00 0.00 0.00 21 1012.7
20260507025927 22 301 1.6 3.2 0.00 0.00 0.00 21 1012.7
20260507025424 22 307 3.2 3.2 0.00 0.00 0.00 20 1012.5
20260507024922 22 291 4.8 4.8 0.00 0.00 0.00 20 1012.2
20260507024419 22 298 0.0 0.0 0.00 0.00 0.00 20 1012.4
20260507023914 22 295 1.6 1.6 0.00 0.00 0.00 20 1012.4
20260507023412 22 328 1.6 1.6 0.00 0.00 0.00 20 1012.1
20260507022909 23 302 6.4 9.7 0.00 0.00 0.00 19 1012.5
20260507022405 23 260 3.2 4.8 0.00 0.00 0.00 19 1012.5
20260507021901 23 313 4.8 4.8 0.00 0.00 0.00 20 1012.2
20260507021356 23 298 3.2 3.2 0.00 0.00 0.00 20 1012.1
20260507020855 23 301 1.6 1.6 0.00 0.00 0.00 20 1012.4
20260507020351 23 301 4.8 8.0 0.00 0.00 0.00 19 1012.4
20260507015848 23 309 3.2 3.2 0.00 0.00 0.00 20 1012.0
20260507015346 24 292 3.2 3.2 0.00 0.00 0.00 20 1012.1
20260507014843 25 280 3.2 3.2 0.00 0.00 0.00 19 1012.1
20260507014339 25 300 8.0 11.3 0.00 0.00 0.00 19 1011.9
20260507013836 25 321 3.2 3.2 0.00 0.00 0.00 19 1012.1
20260507013333 25 316 3.2 3.2 0.00 0.00 0.00 19 1012.5
20260507012831 26 341 0.0 0.0 0.00 0.00 0.00 19 1012.1
20260507012326 26 319 1.6 1.6 0.00 0.00 0.00 19 1012.0
20260507011823 26 283 3.2 3.2 0.00 0.00 0.00 19 1012.1
20260507011320 26 308 4.8 4.8 0.00 0.00 0.00 19 1011.9
20260507010820 26 302 1.6 3.2 0.00 0.00 0.00 19 1012.0
20260507010315 26 23 1.6 1.6 0.00 0.00 0.00 19 1012.1
20260507005813 26 8 1.6 1.6 0.00 0.00 0.00 19 1012.0
20260507005310 26 315 1.6 1.6 0.00 0.00 0.00 19 1012.1
20260507004807 26 16 4.8 8.0 0.00 0.00 0.00 19 1012.0
20260507004304 26 303 4.8 8.0 0.00 0.00 0.00 18 1012.0
20260507003801 27 309 4.8 4.8 0.00 0.00 0.00 19 1012.0
20260507003256 26 303 4.8 8.0 0.00 0.00 0.00 19 1012.0
20260507002752 26 352 4.8 8.0 0.00 0.00 0.00 18 1012.0
20260507002248 26 26 4.8 4.8 0.00 0.00 0.00 19 1011.8
20260507001745 27 10 3.2 3.2 0.00 0.00 0.00 18 1012.1
20260507001242 27 2 4.8 4.8 0.00 0.00 0.00 18 1011.6
20260507000738 27 286 4.8 4.8 0.00 0.00 0.00 18 1012.1
20260507000234 27 323 3.2 3.2 0.00 0.00 0.00 19 1011.9
20260506235731 27 352 8.0 12.9 0.00 0.00 0.00 18 1012.0
20260506235226 27 292 3.2 8.0 0.00 0.00 0.00 19 1012.1
20260506234724 27 355 4.8 4.8 0.00 0.00 0.00 18 1011.9
20260506234221 27 22 1.6 1.6 0.00 0.00 0.00 18 1011.9
20260506233719 27 354 6.4 9.7 0.00 0.00 0.00 18 1012.2
20260506233215 26 3 8.0 11.3 0.00 0.00 0.00 18 1011.9
20260506232711 27 311 3.2 3.2 0.00 0.00 0.00 19 1012.2
20260506232206 27 2 3.2 4.8 0.00 0.00 0.00 19 1012.1
20260506231704 27 281 1.6 1.6 0.00 0.00 0.00 18 1012.2
20260506231203 27 287 1.6 1.6 0.00 0.00 0.00 20 1012.1
20260506230658 27 318 6.4 8.0 0.00 0.00 0.00 18 1012.2
20260506230155 27 298 4.8 8.0 0.00 0.00 0.00 18 1012.2
20260506225652 27 258 6.4 9.7 0.00 0.00 0.00 19 1012.4
20260506225149 27 253 3.2 3.2 0.00 0.00 0.00 19 1012.2
20260506224645 27 286 4.8 4.8 0.00 0.00 0.00 19 1012.2
20260506224142 26 277 3.2 4.8 0.00 0.00 0.00 21 1012.5
20260506223639 26 303 4.8 3.2 0.00 0.00 0.00 20 1012.5
20260506223134 26 266 4.8 8.0 0.00 0.00 0.00 21 1012.2
20260506222631 26 288 8.0 9.7 0.00 0.00 0.00 21 1012.5
20260506222128 26 302 4.8 4.8 0.00 0.00 0.00 20 1012.5
20260506221626 27 237 1.6 1.6 0.00 0.00 0.00 20 1012.6
20260506221123 27 299 6.4 9.7 0.00 0.00 0.00 20 1012.8
20260506220620 27 307 1.6 3.2 0.00 0.00 0.00 20 1012.6
20260506220115 27 214 4.8 4.8 0.00 0.00 0.00 19 1012.8
20260506215612 27 213 1.6 1.6 0.00 0.00 0.00 20 1012.8
20260506215107 27 319 3.2 3.2 0.00 0.00 0.00 20 1012.9
20260506214605 27 256 6.4 8.0 0.00 0.00 0.00 20 1012.7
20260506214102 27 355 1.6 1.6 0.00 0.00 0.00 20 1013.0
20260506213600 26 18 0.0 0.0 0.00 0.00 0.00 21 1013.3
20260506213057 26 352 3.2 4.8 0.00 0.00 0.00 21 1013.2
20260506212554 26 301 3.2 3.2 0.00 0.00 0.00 22 1013.4
20260506212048 26 234 6.4 9.7 0.00 0.00 0.00 21 1013.2
20260506211545 26 250 11.3 12.9 0.00 0.00 0.00 21 1013.5
20260506211042 25 292 3.2 3.2 0.00 0.00 0.00 23 1013.4
20260506210538 26 236 6.4 8.0 0.00 0.00 0.00 22 1013.5
20260506210035 26 290 6.4 8.0 0.00 0.00 0.00 23 1013.5
20260506205532 25 105 1.6 3.2 0.00 0.00 0.00 22 1013.6
20260506205027 25 189 1.6 1.6 0.00 0.00 0.00 23 1013.5
20260506204525 25 336 3.2 3.2 0.00 0.00 0.00 23 1013.4
20260506204022 25 297 4.8 8.0 0.00 0.00 0.00 23 1013.6
20260506203520 25 287 4.8 4.8 0.00 0.00 0.00 24 1013.9
20260506203016 26 324 3.2 3.2 0.00 0.00 0.00 25 1013.8
20260506202514 25 275 6.4 9.7 0.00 0.00 0.00 24 1014.0
20260506202010 25 281 3.2 8.0 0.00 0.00 0.00 25 1014.0
20260506201508 25 273 1.6 1.6 0.00 0.00 0.00 25 1014.0
20260506201004 25 303 1.6 3.2 0.00 0.00 0.00 26 1014.0
20260506200500 25 258 3.2 3.2 0.00 0.00 0.00 25 1014.1
20260506195956 25 216 6.4 8.0 0.00 0.00 0.00 25 1014.1
20260506195455 25 293 4.8 4.8 0.00 0.00 0.00 26 1014.1
20260506194950 24 184 1.6 3.2 0.00 0.00 0.00 27 1014.3
20260506194448 24 327 1.6 1.6 0.00 0.00 0.00 27 1014.5
20260506193944 24 357 9.7 14.5 0.00 0.00 0.00 27 1014.5
20260506193442 24 306 6.4 4.8 0.00 0.00 0.00 28 1014.4
20260506192938 24 6 0.0 1.6 0.00 0.00 0.00 28 1014.5
20260506192436 24 270 1.6 1.6 0.00 0.00 0.00 27 1014.5
20260506191932 24 331 4.8 8.0 0.00 0.00 0.00 28 1014.8
20260506191429 24 307 6.4 9.7 0.00 0.00 0.00 28 1014.7
20260506190925 23 305 8.0 9.7 0.00 0.00 0.00 28 1014.9
20260506190422 23 228 1.6 1.6 0.00 0.00 0.00 29 1014.8
20260506185919 24 262 4.8 4.8 0.00 0.00 0.00 27 1014.9
20260506185416 23 6 4.8 4.8 0.00 0.00 0.00 28 1014.9
20260506184913 23 302 1.6 1.6 0.00 0.00 0.00 29 1015.2
20260506184410 23 339 3.2 3.2 0.00 0.00 0.00 30 1015.0
20260506183908 23 225 4.8 4.8 0.00 0.00 0.00 28 1014.8
20260506183402 24 250 3.2 3.2 0.00 0.00 0.00 26 1015.0
20260506182900 23 210 1.6 1.6 0.00 0.00 0.00 28 1015.2
20260506182357 22 122 6.4 8.0 0.00 0.00 0.00 28 1015.3
20260506181854 22 122 4.8 4.8 0.00 0.00 0.00 29 1015.4
20260506181352 22 263 1.6 3.2 0.00 0.00 0.00 30 1015.7
20260506180849 22 168 1.6 3.2 0.00 0.00 0.00 28 1015.4
20260506180345 22 5 4.8 4.8 0.00 0.00 0.00 30 1015.7
20260506175842 22 296 4.8 4.8 0.00 0.00 0.00 28 1015.4
20260506175338 23 304 3.2 3.2 0.00 0.00 0.00 27 1015.5
20260506174836 23 139 4.8 8.0 0.00 0.00 0.00 28 1015.3
20260506174333 22 105 0.0 1.6 0.00 0.00 0.00 30 1015.4
20260506173830 22 303 4.8 4.8 0.00 0.00 0.00 29 1015.7
20260506173327 22 312 6.4 9.7 0.00 0.00 0.00 31 1015.5
20260506172824 22 333 4.8 8.0 0.00 0.00 0.00 32 1015.6
20260506172321 21 85 1.6 1.6 0.00 0.00 0.00 34 1015.4
20260506171818 21 200 0.0 0.0 0.00 0.00 0.00 34 1015.5
20260506171315 21 235 1.6 1.6 0.00 0.00 0.00 34 1015.5
20260506170813 21 270 3.2 1.6 0.00 0.00 0.00 34 1015.3
20260506170308 21 30 3.2 3.2 0.00 0.00 0.00 36 1015.4
20260506165808 21 6 1.6 1.6 0.00 0.00 0.00 36 1015.5
20260506165306 21 0 1.6 1.6 0.00 0.00 0.00 37 1015.3
20260506164802 21 8 1.6 1.6 0.00 0.00 0.00 38 1015.6
20260506164258 21 7 1.6 3.2 0.00 0.00 0.00 38 1015.5
20260506163755 20 70 1.6 1.6 0.00 0.00 0.00 37 1015.3
20260506163250 20 297 4.8 8.0 0.00 0.00 0.00 37 1015.4
20260506162746 20 345 3.2 3.2 0.00 0.00 0.00 37 1015.5
20260506162244 20 7 4.8 3.2 0.00 0.00 0.00 38 1015.2
20260506161741 20 21 0.0 1.6 0.00 0.00 0.00 41 1015.5
20260506161239 20 307 4.8 4.8 0.00 0.00 0.00 39 1015.3
20260506160736 20 31 0.0 1.6 0.00 0.00 0.00 39 1015.4
20260506160232 20 357 1.6 1.6 0.00 0.00 0.00 41 1015.5